Hamilton, OH

10:50 PM EDT on September 28, 2016 (GMT -0400)
Butler County Regional

Weather History for KHAO - April, 2012

Change the Weather History Date:

Friday, April 20, 2012

  Actual Average (KCVG) Record (KCVG)
Temperature  
Mean Temperature 62 °F 56 °F  
Max Temperature 77 °F 66 °F 89 °F (1976)
Min Temperature 48 °F 45 °F 24 °F (1983)
Degree Days  
Heating Degree Days 2 10  
Month to date heating degree days 258  
Since 1 July heating degree days 4751  
Cooling Degree Days 0 1  
Month to date cooling degree days 8  
Year to date cooling degree days 8  
Growing Degree Days 12 (Base 50)    
Moisture  
Dew Point 48 °F    
Average Humidity 62    
Maximum Humidity 82    
Minimum Humidity 39    
Precipitation  
Precipitation 0.22 in 0.13 in 1.51 in (1920)
Month to date precipitation 2.53  
Year to date precipitation 12.30  
Snow  
Snow 0.00 in 0.00 in 0.00 in ()
Month to date snowfall 0.5  
Since 1 July snowfall 22.1  
Snow Depth -    
Sea Level Pressure  
Sea Level Pressure 29.81 in    
Wind  
Wind Speed 6 mph (WSW)    
Max Wind Speed 16 mph    
Max Gust Speed 23 mph    
Visibility 9 miles    
Events Rain    
T = Trace of Precipitation, MM = Missing Value Source: NWS Daily Summary

Daily Weather History Graph

Daily Weather History Graph

Search for Another Location

Airport or City:

Trip Planner

Search our weather history database for the weather conditions in past years. The results will help you decide how hot, cold, wet, or windy it might be!

Date:

Astronomy

Apr. 20, 2012 Rise Set
Actual Time 6:53 AM EDT 8:21 PM EDT
Civil Twilight 6:25 AM EDT 8:49 PM EDT
Nautical Twilight 5:51 AM EDT 9:23 PM EDT
Astronomical Twilight 5:15 AM EDT 9:59 PM EDT
Moon 6:16 AM EDT (4/20) 8:05 PM EDT (4/20)
Length of Visible Light 14h 24m
Length of Day
13h 28m
Waning Crescent, 0% of the Moon is Illuminated
Apr 20
Waning Crescent
Apr 21
New
Apr 29
First Quarter
May 5
Full
May 12
Last Quarter

Hourly Weather History & Observations

Time (EDT) Temp. Dew Point Humidity Pressure Visibility Wind Dir Wind Speed Gust Speed Precip Events Conditions
12:53 AM 59.0 °F 44.1 °F 58% 29.90 in 10.0 mi Calm Calm - N/A   Clear
1:53 AM 54.0 °F 44.1 °F 69% 29.88 in 10.0 mi East 3.5 mph - N/A   Clear
2:53 AM 53.1 °F 43.0 °F 69% 29.87 in 10.0 mi East 4.6 mph - N/A   Clear
3:53 AM 52.0 °F 43.0 °F 71% 29.85 in 10.0 mi ENE 3.5 mph - N/A   Clear
4:53 AM 54.0 °F 43.0 °F 66% 29.84 in 10.0 mi Calm Calm - N/A   Clear
5:53 AM 48.9 °F 42.1 °F 77% 29.83 in 10.0 mi Calm Calm - N/A   Clear
6:53 AM 48.9 °F 43.0 °F 80% 29.84 in 10.0 mi Calm Calm - N/A   Clear
7:53 AM 54.0 °F 45.0 °F 72% 29.84 in 10.0 mi ESE 4.6 mph - N/A   Clear
8:53 AM 62.1 °F 46.0 °F 56% 29.83 in 10.0 mi Variable 4.6 mph - N/A   Clear
9:53 AM 68.0 °F 50.0 °F 52% 29.83 in 10.0 mi SSW 9.2 mph - N/A   Clear
10:53 AM 72.0 °F 51.1 °F 48% 29.81 in 10.0 mi SSW 9.2 mph 17.3 mph N/A   Clear
11:53 AM 73.9 °F 52.0 °F 46% 29.81 in 10.0 mi SW 11.5 mph 18.4 mph N/A   Partly Cloudy
12:53 PM 73.0 °F 51.1 °F 46% 29.80 in 10.0 mi SW 16.1 mph 23.0 mph N/A   Mostly Cloudy
1:53 PM 77.0 °F 51.1 °F 40% 29.78 in 10.0 mi SSW 10.4 mph 19.6 mph N/A   Mostly Cloudy
2:53 PM 73.9 °F 51.1 °F 45% 29.78 in 10.0 mi SSW 13.8 mph 21.9 mph N/A   Mostly Cloudy
3:53 PM 75.9 °F 51.1 °F 42% 29.75 in 10.0 mi SSW 11.5 mph 18.4 mph N/A   Clear
4:53 PM 77.0 °F 50.0 °F 39% 29.74 in 10.0 mi SW 9.2 mph 18.4 mph N/A   Clear
5:53 PM 73.9 °F 48.9 °F 41% 29.74 in 10.0 mi SSW 9.2 mph 17.3 mph N/A   Mostly Cloudy
6:53 PM 73.9 °F 51.1 °F 45% 29.73 in 10.0 mi SW 4.6 mph - N/A   Mostly Cloudy
7:53 PM 71.1 °F 50.0 °F 47% 29.74 in 10.0 mi WNW 10.4 mph 19.6 mph N/A   Overcast
8:36 PM 59.0 °F 51.8 °F 77% 29.80 in 7.0 mi NW 16.1 mph 19.6 mph 0.09 in Rain Light Rain
8:49 PM 57.2 °F 51.8 °F 82% 29.80 in 9.0 mi NW 13.8 mph - 0.09 in   Overcast
8:53 PM 57.0 °F 51.1 °F 81% 29.80 in 9.0 mi WNW 12.7 mph - 0.09 in   Overcast
9:53 PM 55.9 °F 48.0 °F 75% 29.81 in 10.0 mi North 8.1 mph - N/A   Overcast
10:53 PM 54.0 °F 46.9 °F 77% 29.82 in 10.0 mi North 10.4 mph - 0.01 in Rain Light Rain
11:42 PM 51.8 °F 46.4 °F 82% 29.86 in 8.0 mi WNW 9.2 mph - 0.08 in Rain Light Rain
11:49 PM 51.8 °F 46.4 °F 82% 29.84 in 4.0 mi NNW 10.4 mph - 0.11 in Rain Heavy Rain
11:53 PM 51.1 °F 45.0 °F 80% 29.84 in 4.0 mi NNW 8.1 mph - 0.12 in Rain Heavy Rain